Orange, MA

7:40 PM EST on December 05, 2019 (GMT -0500)
Orange Municipal

Weather History for KORE - October, 2019

Change the Weather History Date:

Tuesday, October 22, 2019

  Actual Average Record
Temperature  
Mean Temperature 48 °F -  
Max Temperature 57 °F 54 °F 75 °F (2007)
Min Temperature 39 °F 31 °F 21 °F (2018)
Degree Days  
Heating Degree Days 17    
Moisture  
Dew Point 44 °F    
Average Humidity 84    
Maximum Humidity 96    
Minimum Humidity 57    
Precipitation  
Precipitation 0.15 in - - ()
Sea Level Pressure  
Sea Level Pressure 30.09 in    
Wind  
Wind Speed 2 mph ()    
Max Wind Speed 9 mph    
Max Gust Speed -    
Visibility 8.5 miles    
Events Rain    
Averages and records for this station are not official NWS values.
T = Trace of Precipitation, MM = Missing Value Source: Averaged Metar Reports

Daily Weather History Graph

Daily Weather History Graph

Search for Another Location

Airport or City:

Astronomy

Oct. 22, 2019 Rise Set
Actual Time 7:10 AM EDT 5:56 PM EDT
Civil Twilight 6:41 AM EDT 6:25 PM EDT
Nautical Twilight 6:08 AM EDT 6:57 PM EDT
Astronomical Twilight 5:36 AM EDT 7:30 PM EDT
Moon 12:05 AM EDT (10/22) 3:13 PM EDT (10/22)
Length of Visible Light 11h 43m
Length of Day
10h 46m
Last Quarter, 37% of the Moon is Illuminated
Oct 22
Last Quarter
Oct 27
New
Nov 4
First Quarter
Nov 12
Full
Nov 19
Last Quarter

Hourly Weather History & Observations

Time (EDT) Temp. Windchill Dew Point Humidity Pressure Visibility Wind Dir Wind Speed Gust Speed Precip Events Conditions
12:01 AM 39.9 °F - 37.9 °F 93% 30.17 in 1.5 mi Calm Calm - N/A   Clear
12:13 AM 41.0 °F - 39.9 °F 96% 30.18 in 1.8 mi Calm Calm - N/A   Clear
12:15 AM 41.0 °F - 39.9 °F 96% 30.18 in 4.0 mi Calm Calm - N/A   Clear
12:52 AM 42.1 °F - 39.9 °F 92% 30.18 in 10.0 mi Calm Calm - N/A   Clear
1:52 AM 41.0 °F - 39.0 °F 93% 30.17 in 10.0 mi Calm Calm - N/A   Clear
2:52 AM 41.0 °F - 39.0 °F 93% 30.18 in 10.0 mi Calm Calm - N/A   Clear
3:52 AM 39.9 °F - 37.9 °F 93% 30.15 in 4.0 mi Calm Calm - N/A   Clear
4:01 AM 39.9 °F - 37.9 °F 93% 30.15 in 2.5 mi Calm Calm - N/A   Clear
4:08 AM 39.9 °F - 37.9 °F 93% 30.15 in 9.0 mi Calm Calm - N/A   Clear
4:52 AM 41.0 °F 39.0 °F 37.9 °F 89% 30.15 in 10.0 mi WSW 3.5 mph - N/A   Clear
5:52 AM 42.1 °F - 39.0 °F 89% 30.15 in 10.0 mi Calm Calm - N/A   Clear
6:52 AM 43.0 °F - 41.0 °F 93% 30.16 in 10.0 mi Calm Calm - N/A   Clear
7:52 AM 43.0 °F - 41.0 °F 93% 30.17 in 10.0 mi Calm Calm - N/A   Clear
8:52 AM 45.0 °F - 42.1 °F 90% 30.17 in 10.0 mi Calm Calm - N/A   Clear
9:52 AM 51.1 °F - 45.0 °F 80% 30.15 in 10.0 mi Calm Calm - N/A   Clear
10:52 AM 55.9 °F - 43.0 °F 62% 30.14 in 10.0 mi East 8.1 mph - N/A   Clear
11:52 AM 57.0 °F - 42.1 °F 57% 30.13 in 10.0 mi East 6.9 mph - N/A   Clear
12:25 PM 57.0 °F - 43.0 °F 59% 30.11 in 10.0 mi East 6.9 mph - N/A   Mostly Cloudy
12:52 PM 57.0 °F - 45.0 °F 64% 30.12 in 10.0 mi ESE 5.8 mph - N/A   Overcast
1:52 PM 55.0 °F - 46.9 °F 74% 30.09 in 10.0 mi East 9.2 mph - N/A   Overcast
2:52 PM 55.9 °F - 48.0 °F 75% 30.06 in 10.0 mi Calm Calm - N/A   Overcast
3:52 PM 55.9 °F - 48.0 °F 75% 30.03 in 10.0 mi East 6.9 mph - N/A   Overcast
4:06 PM 55.9 °F - 48.9 °F 77% 30.02 in 10.0 mi East 5.8 mph - N/A   Overcast
4:52 PM 55.0 °F - 48.9 °F 80% 30.02 in 10.0 mi ESE 4.6 mph - N/A   Overcast
5:41 PM 54.0 °F - 48.9 °F 83% 30.01 in 10.0 mi Calm Calm - 0.00 in   Overcast
5:52 PM 54.0 °F - 48.9 °F 83% 30.01 in 10.0 mi Variable 5.8 mph - 0.00 in   Overcast
6:01 PM 54.0 °F - 48.9 °F 83% 30.00 in 10.0 mi ESE 5.8 mph - N/A   Overcast
6:52 PM 54.0 °F - 48.9 °F 83% 30.00 in 10.0 mi Variable 6.9 mph - N/A   Overcast
7:52 PM 54.0 °F - 48.0 °F 80% 29.99 in 10.0 mi Variable 5.8 mph - N/A   Overcast
8:52 PM 54.0 °F - 48.9 °F 83% 29.98 in 9.0 mi East 3.5 mph - 0.00 in Rain Light Rain
9:52 PM 53.1 °F - 50.0 °F 89% 29.96 in 7.0 mi Calm Calm - 0.00 in Rain Light Rain
10:52 PM 53.1 °F - 50.0 °F 89% 29.91 in 5.0 mi East 3.5 mph - 0.09 in Rain Rain
11:52 PM 53.1 °F - 51.1 °F 93% 29.88 in 6.0 mi Calm Calm - 0.06 in Rain Light Rain